Location: Vancouver
(49.2500°N, 123.1330°W)
Time: 03:53:08
(UTC-07:00)

Cosmos 676 Rocket - Visible Passes

Search period start: 03 September 2015 00:00
Search period end: 13 September 2015 00:00
Orbit: 756 x 784 km, 74.0° (Epoch: 02 September)

Date Brightness Start Highest point End Pass type
(mag) Time Alt. Az. Time Alt. Az. Time Alt. Az.
03 Sep 6.4 00:25:04 12° ENE 00:25:04 12° ENE 00:25:42 10° NE visible
03 Sep 4.9 02:05:21 46° N 02:05:21 46° N 02:09:04 10° NNE visible
03 Sep 6.0 03:45:40 14° WNW 03:47:00 15° NW 03:50:00 10° N visible
04 Sep 5.3 01:29:33 35° NE 01:29:33 35° NE 01:32:35 10° NNE visible
04 Sep 5.7 03:09:51 22° NW 03:10:06 22° NW 03:14:04 10° N visible
05 Sep 5.8 00:53:44 24° NE 00:53:44 24° NE 00:55:57 10° NE visible
05 Sep 5.4 02:34:01 30° NW 02:34:01 30° NW 02:37:55 10° N visible
06 Sep 6.2 00:17:54 16° NE 00:17:54 16° NE 00:19:08 10° NE visible
06 Sep 5.3 01:58:12 36° NNW 01:58:12 36° NNW 02:01:39 10° NNE visible
06 Sep 6.4 03:38:48 10° NW 03:40:14 11° NW 03:41:29 10° NNW visible
07 Sep 5.5 01:22:20 34° NNE 01:22:20 34° NNE 01:25:17 10° NNE visible
07 Sep 6.2 03:02:38 15° NW 03:03:14 15° NW 03:06:12 10° N visible
08 Sep 5.7 00:46:28 27° NNE 00:46:28 27° NNE 00:48:48 10° NNE visible
08 Sep 5.9 02:26:45 21° NW 02:26:45 21° NW 02:30:16 10° N visible
09 Sep 6.1 00:10:35 19° NE 00:10:35 19° NE 00:12:11 10° NE visible
09 Sep 5.7 01:50:52 27° NNW 01:50:52 27° NNW 01:54:08 10° N visible
09 Sep 6.4 23:34:41 13° NE 23:34:41 13° NE 23:35:22 10° NE visible
10 Sep 5.7 01:14:58 30° N 01:14:58 30° N 01:17:52 10° NNE visible
10 Sep 6.5 02:55:16 10° NW 02:56:28 11° NW 02:57:38 10° NNW visible
11 Sep 5.8 00:39:03 28° NNE 00:39:03 28° NNE 00:41:30 10° NNE visible
11 Sep 6.3 02:19:21 15° NW 02:19:28 15° NW 02:22:23 10° N visible
12 Sep 5.9 00:03:07 23° NNE 00:03:07 23° NNE 00:05:01 10° NNE visible
12 Sep 6.1 01:43:25 20° NW 01:43:25 20° NW 01:46:28 10° N visible
12 Sep 6.1 23:27:10 17° NE 23:27:10 17° NE 23:28:24 10° NNE visible
